Location: Bethera
(33.2010°N, 79.7880°W)
Time: 00:19:50
(UTC-05:00)

Amateur Radio Satellites - All Passes

Search period start: 27 February 2015 23:49
Search period end: 28 February 2015 23:49
Location: Bethera, 33.2010°N, 79.7880°W

Satellite Date Start Highest point End Downlink Frequencies (MHz)
Time Altitude Azimuth
BEESAT 27 Feb 23:57:41 23:59:35 13° 67° (ENE) 00:01:44 436.000
ANTELSAT 28 Feb 00:01:08 00:04:01 17° 290° (WNW) 00:06:46 437.575/2403.000
TISAT 1 28 Feb 00:02:47 00:07:04 76° 258° (WSW) 00:11:22 437.305
DANDE 28 Feb 00:19:46 00:27:22 63° 97° (E) 00:33:19 436.750
ITUPSAT 1 28 Feb 00:21:04 00:24:42 23° 70° (ENE) 00:28:28 437.325
QB50P1 28 Feb 00:22:03 00:24:57 18° 290° (WNW) 00:27:40 145.935-145.965
QB50P2 28 Feb 00:24:53 00:27:35 16° 290° (WNW) 00:30:06 145.880/145.840
PHONESAT 2.4 28 Feb 00:26:03 00:29:39 65° 22° (NNE) 00:33:14 2401.200-2431.200
DUCHIFAT 1 28 Feb 00:44:57 00:45:30 10° 292° (WNW) 00:45:47 145.980
VERMONT LUNAR 28 Feb 00:45:33 00:48:51 41° 212° (SSW) 00:52:06 437.305
BUGSAT 1 28 Feb 00:51:01 00:52:19 11° 292° (WNW) 00:53:22 437.445
KKS-1 28 Feb 01:02:53 01:03:09 10° 67° (ENE) 01:03:43 437.445
CUSAT 1 28 Feb 01:09:38 01:16:17 41° 280° (W) 01:21:29 437.405
SO-50 28 Feb 01:17:52 01:20:53 18° 110° (ESE) 01:24:08 436.795
SWISSCUBE 28 Feb 01:23:01 01:27:45 66° 259° (W) 01:32:31 437.505
BEESAT 28 Feb 01:32:20 01:37:01 57° 260° (W) 01:41:43 436.000
ITAMSAT 1 28 Feb 01:38:42 01:42:12 19° 93° (E) 01:45:52 435.822/435.867
RS-15 28 Feb 01:41:01 01:50:40 33° 315° (NW) 02:00:13 29.354- 29.394
Oscar 19 28 Feb 01:46:11 01:51:20 77° 103° (ESE) 01:56:27 437.125/150
ITUPSAT 1 28 Feb 01:58:15 02:02:28 30° 263° (W) 02:06:38 437.325
PHONESAT 2.4 28 Feb 02:05:05 02:07:55 21° 216° (SW) 02:10:40 2401.200-2431.200
DANDE 28 Feb 02:05:49 02:10:48 19° 286° (WNW) 02:14:49 436.750
Gurwin Techsat 1B 28 Feb 02:30:40 02:35:47 48° 99° (E) 02:40:54 435.225
KKS-1 28 Feb 02:34:54 02:39:21 63° 259° (W) 02:43:48 437.445
BEESAT 3 28 Feb 02:36:12 02:39:16 20° 52° (NE) 02:42:23 437.485
AO-7 28 Feb 02:47:27 02:50:02 12° 89° (E) 02:53:26 29.400- 29.500
STARS 28 Feb 02:48:33 02:52:58 70° 258° (WSW) 02:57:24 437.465
SO-50 28 Feb 02:56:54 03:01:10 38° 304° (NW) 03:05:33 436.795
HORYU 2 28 Feb 02:57:01 03:00:11 20° 94° (E) 03:03:30 437.375
BEESAT 2 28 Feb 02:57:47 03:01:25 29° 55° (NE) 03:05:02 435.950
ITAMSAT 1 28 Feb 03:16:59 03:21:54 42° 288° (WNW) 03:26:46 435.822/435.867
JUGNU 28 Feb 03:21:56 03:25:49 18° 170° (S) 03:29:46 437.505
MOZHAYETS 4 28 Feb 03:25:32 03:28:25 17° 70° (ENE) 03:31:28
Oscar 19 28 Feb 03:28:59 03:30:08 10° 295° (WNW) 03:30:55 437.125/150
YUBILEINY 28 Feb 03:45:19 03:54:07 68° 81° (E) 04:02:54 435.215
RS-15 28 Feb 04:05:57 04:08:13 11° 348° (NNW) 04:10:08 29.354- 29.394
Gurwin Techsat 1B 28 Feb 04:11:50 04:15:26 18° 292° (WNW) 04:18:49 435.225
BEESAT 3 28 Feb 04:13:49 04:17:24 29° 248° (WSW) 04:20:53 437.485
AIST 2 28 Feb 04:15:40 04:19:55 81° 61° (ENE) 04:24:06 435.215
M-CUBED/EXP-1 PRIME 28 Feb 04:16:05 04:19:06 32° 257° (WSW) 04:22:08 437.505
JAS-2 28 Feb 04:19:39 04:26:54 52° 99° (E) 04:34:32 435.910
AUBIESAT-1 28 Feb 04:20:41 04:23:41 32° 257° (WSW) 04:26:42 437.475
HORYU 2 28 Feb 04:33:01 04:36:54 29° 288° (WNW) 04:40:43 437.375
AO-7 28 Feb 04:35:48 04:44:08 83° 106° (ESE) 04:52:26 29.400- 29.500
BEESAT 2 28 Feb 04:36:24 04:39:26 19° 249° (WSW) 04:42:17 435.950
MOZHAYETS 4 28 Feb 05:01:12 05:05:24 36° 263° (W) 05:09:36
SRMSAT 28 Feb 05:05:59 05:10:00 19° 171° (S) 05:14:04 437.500
JUGNU 28 Feb 05:09:44 05:14:15 22° 180° (S) 05:18:47 437.505
CUBESAT XI-V 28 Feb 05:15:26 05:18:43 20° 70° (ENE) 05:22:09 437.345
PCSat 28 Feb 05:33:08 05:35:36 13° 48° (NE) 05:38:21 145.827
PRISM 28 Feb 05:38:49 05:42:36 37° 74° (ENE) 05:46:28 437.425
YUBILEINY 28 Feb 05:43:56 05:50:17 21° 276° (W) 05:56:08 435.215
STRAND 1 28 Feb 05:45:44 05:50:01 28° 70° (ENE) 05:54:26 437.568
JAS-2 28 Feb 06:05:22 06:11:38 30° 291° (WNW) 06:18:00 435.910
Cubesat XI-IV 28 Feb 06:20:19 06:25:35 54° 100° (E) 06:30:49 437.490
RS-15 28 Feb 06:22:13 06:27:48 15° 25° (NNE) 06:34:02 29.354- 29.394
CUTE-I 28 Feb 06:30:09 06:35:29 68° 101° (E) 06:40:49 437.470
AO-7 28 Feb 06:30:35 06:36:07 19° 301° (WNW) 06:41:13 29.400- 29.500
AIST 1 28 Feb 06:50:38 06:53:51 21° 90° (E) 06:57:12
CUBESAT XI-V 28 Feb 06:51:44 06:55:58 33° 264° (W) 07:00:11 437.345
SRMSAT 28 Feb 06:54:03 06:58:35 22° 181° (S) 07:03:06 437.500
JUGNU 28 Feb 06:58:42 07:02:41 18° 190° (S) 07:06:36 437.505
PCSat 28 Feb 07:14:18 07:19:44 78° 247° (WSW) 07:25:08 145.827
PRISM 28 Feb 07:16:13 07:18:19 13° 268° (W) 07:20:13 437.425
STRAND 1 28 Feb 07:24:48 07:29:11 27° 264° (W) 07:33:30 437.568
GONETS M04 28 Feb 07:59:28 08:04:14 16° 65° (ENE) 08:09:36
Cubesat XI-IV 28 Feb 08:01:57 08:05:17 16° 293° (WNW) 08:08:22 437.490
BRITE-PL 28 Feb 08:04:00 08:07:30 22° 93° (E) 08:10:55 437.365/2234.400
CANX-2 28 Feb 08:12:08 08:14:59 18° 94° (E) 08:17:59 2200.000
CUTE-I 28 Feb 08:12:32 08:15:04 13° 295° (WNW) 08:17:17 437.470
SEEDS 28 Feb 08:14:09 08:16:16 14° 92° (E) 08:18:36 437.485
GOMX 1 28 Feb 08:23:27 08:26:54 23° 94° (E) 08:30:19 467.674
AIST 1 28 Feb 08:27:52 08:31:25 24° 284° (WNW) 08:34:55
CUTE 1.7 + AOD 2 28 Feb 08:30:34 08:34:10 27° 96° (E) 08:37:50 437.475
RS-15 28 Feb 08:32:55 08:43:59 52° 53° (NE) 08:55:36 29.354- 29.394
ISS 28 Feb 08:35:09 08:37:15 17° 129° (SE) 08:39:25 145.825
SRMSAT 28 Feb 08:43:19 08:47:09 17° 191° (S) 08:50:56 437.500
HO-68 28 Feb 08:56:49 09:03:55 62° 102° (ESE) 09:11:02 435.675
Oscar 11 28 Feb 08:57:36 08:59:58 15° 92° (E) 09:02:33 145.826/435.025
TIGRISAT 28 Feb 09:08:41 09:10:39 13° 69° (ENE) 09:12:49 435.000
DOVE 4 28 Feb 09:11:11 09:15:24 60° 100° (E) 09:19:30 437.250
DELFI C3 28 Feb 09:15:01 09:17:47 18° 94° (E) 09:20:42 145.870
DX 1 28 Feb 09:18:07 09:19:11 11° 91° (E) 09:20:33 434.975-435.025
ANTELSAT 28 Feb 09:19:35 09:22:34 18° 71° (ENE) 09:25:40 437.575/2403.000
AAUSAT CUBESAT 2 28 Feb 09:24:37 09:28:49 76° 101° (E) 09:33:01 437.432
COMPASS 1 28 Feb 09:24:56 09:29:09 90° 91° (E) 09:33:22 437.405
QB50P1 28 Feb 09:35:43 09:37:59 15° 69° (ENE) 09:40:27 145.935-145.965
FUNcube-1 28 Feb 09:35:49 09:38:44 19° 94° (E) 09:41:46 145.935
ZACube-1 28 Feb 09:35:58 09:38:56 19° 94° (E) 09:42:01 437.345
QB50P2 28 Feb 09:38:15 09:40:47 16° 70° (ENE) 09:43:30 145.880/145.840
CINEMA 3 28 Feb 09:40:02 09:44:12 68° 101° (E) 09:48:19 145.822/145.860
BRITE-PL 28 Feb 09:42:18 09:46:02 24° 290° (WNW) 09:49:28 437.365/2234.400
O/OREOS (USA 219) 28 Feb 09:44:13 09:48:43 72° 108° (ESE) 09:53:17 437.305
CANX-2 28 Feb 09:47:17 09:50:59 29° 287° (WNW) 09:54:38 2200.000
UWE-3 28 Feb 09:48:06 09:51:53 34° 98° (E) 09:55:42 435.000/436.395/437.385
SEEDS 28 Feb 09:48:22 09:52:17 37° 286° (WNW) 09:56:10 437.485
UKube-1 28 Feb 09:49:07 09:52:43 26° 96° (E) 09:56:23 .
GONETS M04 28 Feb 09:53:34 10:02:21 85° 265° (W) 10:11:09
DUCHIFAT 1 28 Feb 09:54:55 09:58:21 24° 72° (ENE) 10:01:50 145.980
BUGSAT 1 28 Feb 09:59:54 10:03:01 21° 71° (ENE) 10:06:16 437.445
HUMSAT D 28 Feb 10:01:27 10:04:23 19° 94° (E) 10:07:26 437.325/437.525
GOMX 1 28 Feb 10:01:34 10:05:00 22° 289° (WNW) 10:08:12 467.674
CUTE 1.7 + AOD 2 28 Feb 10:06:50 10:09:58 20° 289° (WNW) 10:12:57 437.475
ISS 28 Feb 10:10:34 10:13:30 32° 322° (NW) 10:16:27 145.825
POLYITAN 1 28 Feb 10:11:12 10:15:11 39° 74° (ENE) 10:19:13 437.675
POPSAT HIP 1 28 Feb 10:13:08 10:17:09 40° 74° (ENE) 10:21:12 437.405
UNISAT 6 28 Feb 10:16:06 10:20:35 87° 78° (ENE) 10:24:58 437.425
CUBEBUG 2 28 Feb 10:19:24 10:23:34 74° 283° (WNW) 10:27:42 437.445
50 SAT 28 Feb 10:27:09 10:30:30 27° 96° (E) 10:33:54 437.505
Oscar 11 28 Feb 10:32:21 10:36:20 36° 286° (WNW) 10:40:16 145.826/435.025
NANOSAT C BR1 28 Feb 10:37:07 10:41:24 82° 79° (E) 10:45:43 145.865
AISAT 28 Feb 10:42:02 10:46:17 45° 99° (E) 10:50:32 437.250
TIGRISAT 28 Feb 10:42:48 10:47:06 45° 261° (W) 10:51:19 435.000
RS-15 28 Feb 10:45:39 10:56:19 42° 251° (WSW) 11:07:08 29.354- 29.394
HO-68 28 Feb 10:45:51 10:51:10 22° 296° (WNW) 10:56:13 435.675
DELFI C3 28 Feb 10:49:34 10:53:02 26° 287° (WNW) 10:56:26 145.870
DX 1 28 Feb 10:51:34 10:55:48 49° 286° (WNW) 11:00:00 434.975-435.025
VELOX 1 28 Feb 10:52:48 10:57:12 59° 100° (E) 11:01:34 145.980
ANTELSAT 28 Feb 10:55:11 10:59:12 31° 263° (W) 11:03:06 437.575/2403.000
CUBEBUG 1 28 Feb 10:55:43 10:59:19 25° 95° (E) 11:03:00 437.445
ESTCUBE 1 28 Feb 10:58:12 11:02:12 30° 97° (E) 11:06:14 437.505/2401.250
QB50P1 28 Feb 11:09:34 11:13:35 38° 262° (W) 11:17:36 145.935-145.965
DANDE 28 Feb 11:09:53 11:11:09 13° 73° (ENE) 11:12:30 436.750
FUNcube-1 28 Feb 11:11:37 11:15:06 26° 287° (WNW) 11:18:32 145.935
ZACube-1 28 Feb 11:11:52 11:15:20 25° 288° (WNW) 11:18:43 437.345
QB50P2 28 Feb 11:12:30 11:16:27 35° 262° (W) 11:20:23 145.880/145.840
UKube-1 28 Feb 11:25:25 11:28:46 22° 290° (WNW) 11:32:01 .
UWE-3 28 Feb 11:25:48 11:28:12 15° 290° (WNW) 11:30:26 435.000/436.395/437.385
DUCHIFAT 1 28 Feb 11:30:42 11:34:08 22° 265° (W) 11:37:28 145.980
SO-50 28 Feb 11:31:55 11:36:49 61° 59° (ENE) 11:41:40 436.795
BUGSAT 1 28 Feb 11:34:44 11:38:23 26° 264° (W) 11:41:59 437.445
HUMSAT D 28 Feb 11:36:46 11:40:10 25° 288° (WNW) 11:43:30 437.325/437.525
SPROUT 28 Feb 11:39:15 11:42:08 18° 93° (E) 11:45:08 437.525
POLYITAN 1 28 Feb 11:49:01 11:51:20 14° 268° (W) 11:53:26 437.675
POPSAT HIP 1 28 Feb 11:51:05 11:53:17 13° 268° (W) 11:55:14 437.405
TISAT 1 28 Feb 11:52:35 11:55:55 23° 95° (E) 11:59:18 437.305
CUSAT 1 28 Feb 11:54:25 11:56:58 49° 263° (W) 11:59:33 437.405
GONETS M04 28 Feb 11:54:29 11:58:09 13° 279° (W) 12:01:02
50 SAT 28 Feb 12:02:43 12:05:21 17° 289° (WNW) 12:07:52 437.505
AISAT 28 Feb 12:20:16 12:22:34 14° 292° (WNW) 12:24:38 437.250
CUBEBUG 1 28 Feb 12:32:07 12:35:37 23° 289° (WNW) 12:38:59 437.445
VELOX 1 28 Feb 12:32:22 12:33:20 10° 293° (WNW) 12:34:00 145.980
ESTCUBE 1 28 Feb 12:35:31 12:38:55 20° 290° (WNW) 12:42:11 437.505/2401.250
ITAMSAT 1 28 Feb 12:52:52 12:56:26 20° 68° (ENE) 13:00:12 435.822/435.867
Oscar 19 28 Feb 12:58:45 13:03:52 72° 76° (ENE) 13:09:01 437.125/150
SPROUT 28 Feb 13:14:31 13:18:18 29° 287° (WNW) 13:21:59 437.525
SO-50 28 Feb 13:14:42 13:16:56 13° 252° (WSW) 13:18:52 436.795
SWISSCUBE 28 Feb 13:27:47 13:32:23 44° 99° (E) 13:36:59 437.505
TISAT 1 28 Feb 13:28:18 13:31:40 23° 289° (WNW) 13:34:54 437.305
BEESAT 28 Feb 13:36:51 13:41:33 51° 100° (E) 13:46:13 436.000
AO-7 28 Feb 13:42:37 13:46:17 14° 56° (NE) 13:50:30 29.400- 29.500
Gurwin Techsat 1B 28 Feb 13:47:32 13:52:38 50° 73° (ENE) 13:57:46 435.225
HORYU 2 28 Feb 13:53:24 13:54:46 12° 68° (ENE) 13:56:24 437.375
ITUPSAT 1 28 Feb 14:02:26 14:07:17 84° 283° (WNW) 14:12:06 437.325
KKS-1 28 Feb 14:30:38 14:34:40 34° 98° (E) 14:38:42 437.445
ITAMSAT 1 28 Feb 14:30:44 14:35:40 42° 261° (W) 14:40:36 435.822/435.867
STARS 28 Feb 14:43:09 14:46:57 29° 97° (E) 14:50:47 437.465
YUBILEINY 28 Feb 14:50:07 14:53:20 13° 81° (E) 14:57:20 435.215
SWISSCUBE 28 Feb 15:06:56 15:09:56 16° 292° (WNW) 15:12:43 437.505
BEESAT 28 Feb 15:16:27 15:19:01 14° 293° (WNW) 15:21:20 436.000
HORYU 2 28 Feb 15:26:43 15:31:03 53° 260° (W) 15:35:24 437.375
Gurwin Techsat 1B 28 Feb 15:29:37 15:32:57 16° 268° (W) 15:36:03 435.225
AO-7 28 Feb 15:29:39 15:37:59 78° 71° (ENE) 15:46:20 29.400- 29.500
M-CUBED/EXP-1 PRIME 28 Feb 16:00:50 16:04:11 23° 101° (E) 16:07:50 437.505
AUBIESAT-1 28 Feb 16:04:58 16:08:20 22° 101° (E) 16:11:58 437.475
KKS-1 28 Feb 16:08:04 16:11:05 17° 291° (WNW) 16:13:55 437.445
JAS-2 28 Feb 16:12:54 16:18:12 88° 257° (WSW) 16:24:02 435.910
STARS 28 Feb 16:20:03 16:23:16 20° 290° (WNW) 16:26:20 437.465
YUBILEINY 28 Feb 16:40:24 16:49:07 87° 96° (E) 16:57:56 435.215
ISS 28 Feb 16:41:15 16:44:14 33° 38° (NE) 16:47:14 145.825
BEESAT 2 28 Feb 16:49:39 16:51:59 15° 110° (ESE) 16:54:30 435.950
MOZHAYETS 4 28 Feb 17:00:06 17:04:44 73° 102° (ESE) 17:09:22
PHONESAT 2.4 28 Feb 17:16:01 17:17:24 12° 141° (SE) 17:18:55 2401.200-2431.200
AO-7 28 Feb 17:26:03 17:31:38 18° 268° (W) 17:36:42 29.400- 29.500
VERMONT LUNAR 28 Feb 17:27:41 17:30:51 33° 147° (SSE) 17:34:02 437.305
M-CUBED/EXP-1 PRIME 28 Feb 17:35:25 17:39:04 28° 291° (WNW) 17:42:53 437.505
Cubesat XI-IV 28 Feb 17:38:06 17:43:21 59° 74° (ENE) 17:48:39 437.490
AUBIESAT-1 28 Feb 17:39:28 17:43:09 28° 291° (WNW) 17:46:59 437.475
CUTE-I 28 Feb 17:47:43 17:53:03 73° 75° (ENE) 17:58:26 437.470
STRAND 1 28 Feb 18:02:03 18:04:13 13° 91° (E) 18:06:43 437.568
BEESAT 3 28 Feb 18:03:00 18:07:00 55° 300° (WNW) 18:11:04 437.485
AIST 2 28 Feb 18:09:44 18:13:47 48° 115° (ESE) 18:17:56 435.215
ISS 28 Feb 18:18:21 18:20:30 16° 231° (SW) 18:22:34 145.825
BEESAT 2 28 Feb 18:26:05 18:29:54 36° 303° (WNW) 18:33:45 435.950
AIST 1 28 Feb 18:38:32 18:42:51 53° 81° (E) 18:47:09
YUBILEINY 28 Feb 18:42:11 18:47:19 16° 296° (WNW) 18:51:50 435.215
PHONESAT 2.4 28 Feb 18:51:53 18:55:30 76° 154° (SSE) 18:59:09 2401.200-2431.200
CUBESAT XI-V 28 Feb 18:52:13 18:56:58 85° 103° (ESE) 19:01:40 437.345
PRISM 28 Feb 19:00:40 19:04:53 69° 284° (WNW) 19:09:05 437.425
VERMONT LUNAR 28 Feb 19:05:21 19:08:44 45° 341° (NNW) 19:12:06 437.305
BRITE-PL 28 Feb 19:09:42 19:13:59 23° 70° (ENE) 19:18:20 437.365/2234.400
Cubesat XI-IV 28 Feb 19:21:08 19:23:55 14° 269° (W) 19:26:22 437.490
CUTE 1.7 + AOD 2 28 Feb 19:21:31 19:23:06 12° 69° (ENE) 19:24:54 437.475
HO-68 28 Feb 19:21:32 19:27:27 30° 66° (ENE) 19:33:33 435.675
GOMX 1 28 Feb 19:26:51 19:30:52 22° 71° (ENE) 19:34:56 467.674
CUTE-I 28 Feb 19:32:28 19:33:46 11° 271° (W) 19:34:38 437.470
STRAND 1 28 Feb 19:38:48 19:43:52 57° 286° (WNW) 19:48:53 437.568
AIST 2 28 Feb 19:50:13 19:52:43 15° 311° (NW) 19:55:03 435.215
O/OREOS (USA 219) 28 Feb 19:58:26 20:03:02 68° 70° (ENE) 20:07:33 437.305
PCSat 28 Feb 20:09:34 20:13:50 25° 108° (ESE) 20:18:15 145.827
DOVE 4 28 Feb 20:11:48 20:16:42 42° 75° (ENE) 20:21:28 437.250
AAUSAT CUBESAT 2 28 Feb 20:11:59 20:15:32 29° 73° (ENE) 20:19:08 437.432
COMPASS 1 28 Feb 20:12:31 20:16:14 34° 74° (ENE) 20:20:02 437.405
ZACube-1 28 Feb 20:30:31 20:31:15 11° 69° (ENE) 20:32:16 437.345
FUNcube-1 28 Feb 20:30:32 20:30:52 10° 68° (ENE) 20:31:31 145.935
PHONESAT 2.4 28 Feb 20:30:54 20:34:12 31° 348° (NNW) 20:37:29 2401.200-2431.200
CANX-2 28 Feb 20:35:30 20:39:42 71° 259° (W) 20:43:54 2200.000
SEEDS 28 Feb 20:35:57 20:40:08 86° 78° (ENE) 20:44:20 437.485
CINEMA 3 28 Feb 20:37:16 20:41:48 40° 75° (ENE) 20:46:13 145.822/145.860
UKube-1 28 Feb 20:41:30 20:43:40 14° 68° (ENE) 20:46:04 .
UWE-3 28 Feb 20:42:01 20:45:06 19° 71° (ENE) 20:48:18 435.000/436.395/437.385
VERMONT LUNAR 28 Feb 20:44:14 20:47:08 24° 357° (N) 20:50:01 437.305
BRITE-PL 28 Feb 20:46:52 20:52:15 42° 263° (W) 20:57:29 437.365/2234.400
CUTE 1.7 + AOD 2 28 Feb 20:54:39 20:58:42 44° 261° (W) 21:02:44 437.475
GONETS M04 28 Feb 20:55:33 21:01:25 22° 84° (E) 21:07:45
GOMX 1 28 Feb 21:03:38 21:08:46 40° 262° (W) 21:13:43 467.674
HO-68 28 Feb 21:08:13 21:14:58 44° 261° (W) 21:21:42 435.675
CUBEBUG 2 28 Feb 21:13:12 21:17:41 54° 76° (ENE) 21:22:04 437.445
Oscar 11 28 Feb 21:22:26 21:26:45 82° 260° (W) 21:31:04 145.826/435.025
DELFI C3 28 Feb 21:32:42 21:36:43 78° 258° (WSW) 21:40:46 145.870
AISAT 28 Feb 21:36:22 21:40:00 25° 71° (ENE) 21:43:45 437.250
DX 1 28 Feb 21:42:38 21:47:01 81° 77° (ENE) 21:51:27 434.975-435.025
VELOX 1 28 Feb 21:46:40 21:50:36 32° 72° (ENE) 21:54:36 145.980
AAUSAT CUBESAT 2 28 Feb 21:48:25 21:51:15 17° 267° (W) 21:53:55 437.432
CUBEBUG 1 28 Feb 21:49:23 21:51:29 14° 68° (ENE) 21:53:49 437.445
COMPASS 1 28 Feb 21:49:43 21:52:07 14° 268° (W) 21:54:20 437.405
DOVE 4 28 Feb 21:50:54 21:54:36 19° 267° (W) 21:58:02 437.250
PCSat 28 Feb 21:52:07 21:57:06 36° 302° (WNW) 22:02:03 145.827
ESTCUBE 1 28 Feb 21:54:49 21:57:46 18° 70° (ENE) 22:00:53 437.505/2401.250
FUNcube-1 28 Feb 22:02:27 22:06:50 58° 260° (W) 22:11:08 145.935
ZACube-1 28 Feb 22:02:52 22:07:15 57° 260° (W) 22:11:32 437.345
PHONESAT 2.4 28 Feb 22:10:11 22:13:16 25° 5° (N) 22:16:21 2401.200-2431.200
UNISAT 6 28 Feb 22:12:59 22:16:24 24° 95° (E) 22:19:57 437.425
UKube-1 28 Feb 22:15:24 22:19:31 41° 261° (W) 22:23:39 .
CINEMA 3 28 Feb 22:15:55 22:19:09 17° 267° (W) 22:22:07 145.822/145.860
UWE-3 28 Feb 22:17:27 22:21:29 31° 263° (W) 22:25:24 435.000/436.395/437.385
VERMONT LUNAR 28 Feb 22:22:27 22:25:38 33° 14° (NNE) 22:28:49 437.305
HUMSAT D 28 Feb 22:23:46 22:27:59 63° 260° (W) 22:32:08 437.325/437.525
NANOSAT C BR1 28 Feb 22:27:40 22:30:31 18° 94° (E) 22:33:28 145.865
TIGRISAT 28 Feb 22:38:37 22:42:44 47° 99° (E) 22:46:56 435.000
TISAT 1 28 Feb 22:43:14 22:44:19 11° 68° (ENE) 22:45:40 437.305
50 SAT 28 Feb 22:44:03 22:47:57 48° 261° (W) 22:51:49 437.505
GONETS M04 28 Feb 22:49:01 22:57:39 65° 279° (W) 23:06:15
ANTELSAT 28 Feb 22:50:51 22:55:08 71° 101° (E) 22:59:28 437.575/2403.000
RS-15 28 Feb 22:51:32 23:01:41 48° 110° (ESE) 23:12:00 29.354- 29.394
CUBEBUG 2 28 Feb 22:53:27 22:54:44 11° 269° (W) 22:55:42 437.445
QB50P1 28 Feb 22:58:57 23:03:00 44° 99° (E) 23:07:02 145.935-145.965
QB50P2 28 Feb 23:01:57 23:06:04 50° 99° (E) 23:10:10 145.880/145.840
AISAT 28 Feb 23:12:53 23:16:34 24° 265° (W) 23:20:10 437.250
CUSAT 1 28 Feb 23:15:04 23:20:04 22° 95° (E) 23:24:30 437.405
DUCHIFAT 1 28 Feb 23:18:56 23:23:10 80° 103° (ESE) 23:27:21 145.980
BUGSAT 1 28 Feb 23:20:49 23:24:56 61° 100° (E) 23:28:59 437.445
CUBEBUG 1 28 Feb 23:23:15 23:27:31 45° 261° (W) 23:31:47 437.445
VELOX 1 28 Feb 23:24:02 23:27:16 19° 266° (W) 23:30:20 145.980
ESTCUBE 1 28 Feb 23:30:18 23:34:25 34° 263° (W) 23:38:32 437.505/2401.250
POLYITAN 1 28 Feb 23:36:38 23:40:48 58° 285° (WNW) 23:44:55 437.675
POPSAT HIP 1 28 Feb 23:38:18 23:42:27 56° 284° (WNW) 23:46:33 437.405
